Tracking 19219 objects as of 19-Jul-2018
HD Live streaming from Space Station
objects crossing your sky now

FENGYUN 1C DEB

Track FENGYUN 1C DEB now!
10-day predictions


NORAD ID: 30599
Int'l Code: 1999-025AME
Perigee: 623.4 km
Apogee: 1,102.5 km
Inclination: 98.9 °
Period: 102.1 minutes
Semi major axis: 7233 km
RCS: 0.0171 m2 (small)
Launch date: May 10, 1999
Source: People's Republic of China (PRC)
Launch site: Taiyaun Space Center, China (TSC)

Note: This is SATELLITE DEBRIS
aabbcc
Your satellite tracking list
Your tracking list is empty




NASA's NSSDC Master Catalog

Two Line Element Set (TLE):
1 30599U 99025AME 18200.33926029  .00000216  00000-0  87925-4 0  9990
2 30599  98.8663 239.1003 0331154 141.7497 220.7676 14.11046854590082
Source of the keplerian elements: AFSPC